Location: Unspecified
(44.4377°N, 88.0525°W)
Time: 02:30:40
(UTC-05:00)

Resurs 1-4 Rocket - Visible Passes

Search period start: 17 October 2017 00:00
Search period end: 27 October 2017 00:00
Orbit: 800 x 813 km, 98.5° (Epoch: 16 October)

Date Brightness Start Highest point End Pass type
(mag) Time Alt. Az. Time Alt. Az. Time Alt. Az.
17 Oct 4.5 04:01:32 10° N 04:02:15 14° N 04:02:15 14° N visible
18 Oct 4.6 03:36:43 10° N 03:37:16 13° N 03:37:16 13° N visible
19 Oct 4.9 03:12:04 10° NNE 03:12:17 11° NNE 03:12:17 11° NNE visible
20 Oct 4.5 04:28:10 10° NNW 04:28:22 11° NNW 04:28:22 11° NNW visible
21 Oct 4.6 04:03:08 10° N 04:03:23 11° N 04:03:23 11° N visible
22 Oct 4.8 03:38:18 10° N 03:38:24 11° N 03:38:24 11° N visible
